Location: Emporia
(38.4040°N, 96.1810°W)
Time: 22:58:56
(UTC-06:00)

Amateur Radio Satellites - All Passes

Search period start: 23 January 2017 22:28
Search period end: 24 January 2017 22:28
Location: Emporia, 38.4040°N, 96.1810°W

Satellite Date Start Highest point End Downlink Frequencies (MHz)
Time Altitude Azimuth
AISAT 23 Jan 22:35:25 22:37:56 15° 65° (ENE) 22:40:26 437.250
BY70-1 23 Jan 22:39:03 22:42:05 89° 115° (ESE) 22:45:23 436.1900
UNISAT 6 23 Jan 22:52:32 22:56:59 65° 285° (WNW) 23:01:30 437.425
ISS 23 Jan 22:54:18 22:56:08 14° 340° (NNW) 22:57:59 145.825
HUMSAT D 23 Jan 22:55:15 22:57:36 15° 268° (W) 22:59:58 437.325/437.525
PRISM 23 Jan 22:55:46 22:58:31 18° 293° (WNW) 23:01:14 437.425
50 SAT 23 Jan 23:01:51 23:04:03 16° 68° (ENE) 23:06:16 437.505
TIGRISAT 23 Jan 23:04:44 23:09:05 51° 286° (WNW) 23:13:30 435.000
VELOX 1 23 Jan 23:06:57 23:10:51 30° 70° (ENE) 23:14:45 145.980
SPROUT 23 Jan 23:07:23 23:10:38 22° 68° (ENE) 23:13:53 437.525
ESTCUBE 1 23 Jan 23:11:45 23:16:17 82° 256° (WSW) 23:20:52 437.505/2401.250
JAS-2 23 Jan 23:12:10 23:19:34 64° 101° (E) 23:27:20 435.910
PCSat 23 Jan 23:15:37 23:20:08 28° 108° (ESE) 23:24:42 145.827
AO-85 23 Jan 23:16:57 23:19:54 21° 248° (WSW) 23:22:52 145.980
UKube-1 23 Jan 23:19:15 23:21:35 14° 65° (ENE) 23:23:55 .
ANTELSAT 23 Jan 23:21:17 23:25:17 32° 289° (WNW) 23:29:20 437.575/2403.000
PHONESAT 2.4 23 Jan 23:26:31 23:27:36 13° 150° (SSE) 23:28:43 2401.200-2431.200
DX 1 23 Jan 23:26:36 23:30:06 24° 68° (ENE) 23:33:36 434.975-435.025
QB50P1 23 Jan 23:32:48 23:36:31 29° 97° (E) 23:40:13 145.935-145.965
RS-15 23 Jan 23:33:02 23:44:54 90° 301° (WNW) 23:57:19 29.354- 29.394
POLYITAN 1 23 Jan 23:38:06 23:41:59 34° 98° (E) 23:45:52 437.675
QB50P2 23 Jan 23:39:26 23:43:25 38° 98° (E) 23:47:22 145.880/145.840
CUBEBUG 1 23 Jan 23:42:46 23:47:08 63° 258° (WSW) 23:51:30 437.445
YUBILEINY 23 Jan 23:47:38 23:53:50 21° 65° (ENE) 23:59:58 435.215
BEESAT 3 23 Jan 23:48:53 23:52:12 24° 51° (NE) 23:55:30 437.485
POPSAT HIP 1 23 Jan 23:59:46 00:03:57 61° 101° (E) 00:08:09 437.405
DUCHIFAT 1 24 Jan 00:05:36 00:09:46 61° 101° (E) 00:13:55 145.980
AISAT 24 Jan 00:09:40 00:13:58 49° 260° (W) 00:18:16 437.250
NANOSAT C BR1 24 Jan 00:13:13 00:17:27 84° 106° (ESE) 00:21:40 145.865
AIST 1 24 Jan 00:18:02 00:21:42 27° 76° (ENE) 00:25:20
TISAT 1 24 Jan 00:21:38 00:24:41 20° 68° (ENE) 00:27:45 437.305
BUGSAT 1 24 Jan 00:24:28 00:28:08 32° 98° (E) 00:31:49 437.445
Cosmos 2504 24 Jan 00:31:20 00:35:43 17° 65° (ENE) 00:40:02 435.465 / 435.565
50 SAT 24 Jan 00:33:54 00:37:00 28° 263° (W) 00:40:09 437.505
Cosmos 2491 24 Jan 00:37:30 00:43:36 22° 80° (E) 00:49:43 435.465 / 435.565
BEESAT 2 24 Jan 00:41:56 00:45:44 37° 54° (NE) 00:49:29 435.950
SPROUT 24 Jan 00:42:40 00:46:22 29° 263° (W) 00:50:05 437.525
VELOX 1 24 Jan 00:43:49 00:47:17 22° 265° (W) 00:50:46 145.980
UKube-1 24 Jan 00:53:00 00:57:11 48° 260° (W) 01:01:23 .
JAS-2 24 Jan 00:58:09 01:04:03 27° 296° (WNW) 01:10:13 435.910
PCSat 24 Jan 00:58:19 01:03:21 38° 305° (NW) 01:08:24 145.827
PHONESAT 2.4 24 Jan 00:58:54 01:01:07 83° 160° (SSE) 01:03:19 2401.200-2431.200
DX 1 24 Jan 01:02:23 01:06:08 28° 263° (W) 01:09:54 434.975-435.025
QB50P1 24 Jan 01:08:54 01:12:06 21° 292° (WNW) 01:15:17 145.935-145.965
POLYITAN 1 24 Jan 01:14:33 01:17:31 19° 293° (WNW) 01:20:28 437.675
QB50P2 24 Jan 01:16:09 01:18:53 17° 293° (WNW) 01:21:36 145.880/145.840
BEESAT 24 Jan 01:18:12 01:21:30 19° 65° (ENE) 01:24:48 436.000
SWISSCUBE 24 Jan 01:19:54 01:23:30 22° 66° (ENE) 01:27:08 437.505
BEESAT 3 24 Jan 01:26:21 01:29:46 27° 247° (WSW) 01:33:10 437.485
Oscar 19 24 Jan 01:36:13 01:41:16 51° 100° (E) 01:46:15 437.125/150
POPSAT HIP 1 24 Jan 01:37:56 01:39:11 11° 296° (WNW) 01:40:27 437.405
YUBILEINY 24 Jan 01:42:49 01:51:39 80° 265° (W) 02:00:22 435.215
DUCHIFAT 1 24 Jan 01:43:43 01:44:53 11° 296° (WNW) 01:46:04 145.980
RS-15 24 Jan 01:48:53 01:59:14 32° 325° (NW) 02:09:54 29.354- 29.394
AIST 1 24 Jan 01:55:56 01:59:05 20° 272° (W) 02:02:13
TISAT 1 24 Jan 01:56:26 02:00:07 30° 263° (W) 02:03:48 437.305
CUSAT 1 24 Jan 01:58:51 02:03:06 23° 82° (E) 02:08:10 437.405
BUGSAT 1 24 Jan 02:00:30 02:03:15 18° 292° (WNW) 02:06:01 437.445
ISS 24 Jan 02:09:34 02:11:28 14° 21° (NNE) 02:13:20 145.825
MOZHAYETS 4 24 Jan 02:15:26 02:18:49 21° 67° (ENE) 02:22:12
BEESAT 2 24 Jan 02:20:30 02:23:13 17° 250° (WSW) 02:25:54 435.950
Gurwin Techsat 1B 24 Jan 02:22:05 02:27:25 76° 102° (ESE) 02:32:44 435.225
ITUPSAT 1 24 Jan 02:22:10 02:26:56 84° 76° (ENE) 02:31:44 437.325
Cosmos 2504 24 Jan 02:22:42 02:30:00 78° 265° (W) 02:37:07 435.465 / 435.565
ITAMSAT 1 24 Jan 02:29:16 02:32:24 16° 92° (E) 02:35:32 435.822/435.867
Cosmos 2491 24 Jan 02:30:48 02:39:29 73° 279° (W) 02:48:13 435.465 / 435.565
PHONESAT 2.4 24 Jan 02:32:49 02:34:58 43° 0° (N) 02:37:06 2401.200-2431.200
AO-7 24 Jan 02:47:53 02:54:05 22° 94° (E) 03:00:12 29.400- 29.500
BEESAT 24 Jan 02:54:25 02:58:56 43° 261° (W) 03:03:28 436.000
SWISSCUBE 24 Jan 02:56:40 03:01:02 37° 262° (W) 03:05:26 437.505
STARS 24 Jan 03:10:28 03:11:25 11° 62° (ENE) 03:12:20 437.465
CUBESAT XI-V 24 Jan 03:13:23 03:15:35 13° 63° (ENE) 03:17:46 437.345
AIST 2 24 Jan 03:15:23 03:19:15 33° 53° (NE) 03:23:05 435.215
M-CUBED/EXP-1 PRIME 24 Jan 03:15:46 03:19:54 48° 69° (ENE) 03:23:47 437.505
Oscar 19 24 Jan 03:16:39 03:20:08 19° 296° (WNW) 03:23:37 437.125/150
DANDE 24 Jan 03:29:09 03:32:53 35° 88° (E) 03:37:45 436.750
CUSAT 1 24 Jan 03:39:06 03:44:20 49° 286° (WNW) 03:51:03 437.405
YUBILEINY 24 Jan 03:43:04 03:46:53 14° 284° (WNW) 03:50:42 435.215
ISS 24 Jan 03:45:08 03:48:23 77° 40° (NE) 03:51:37 145.825
AUBIESAT-1 24 Jan 03:48:48 03:53:02 85° 252° (WSW) 03:56:59 437.475
MOZHAYETS 4 24 Jan 03:51:30 03:55:42 36° 263° (W) 03:59:58
KKS-1 24 Jan 04:01:02 04:05:29 90° 141° (SE) 04:09:56 437.445
Gurwin Techsat 1B 24 Jan 04:04:07 04:06:41 14° 299° (WNW) 04:09:16 435.225
PHONESAT 2.4 24 Jan 04:06:35 04:08:48 82° 195° (SSW) 04:11:01 2401.200-2431.200
ITAMSAT 1 24 Jan 04:07:04 04:12:11 57° 288° (WNW) 04:17:17 435.822/435.867
RS-15 24 Jan 04:09:39 04:17:34 18° 1° (N) 04:25:28 29.354- 29.394
BRITE-PL 24 Jan 04:24:15 04:27:16 17° 91° (E) 04:30:09 437.365/2234.400
Cosmos 2491 24 Jan 04:34:21 04:38:00 13° 300° (WNW) 04:41:41 435.465 / 435.565
AO-7 24 Jan 04:39:08 04:47:28 73° 291° (WNW) 04:55:44 29.400- 29.500
STARS 24 Jan 04:42:48 04:47:09 70° 258° (WSW) 04:51:31 437.465
CUBESAT XI-V 24 Jan 04:47:43 04:52:22 63° 259° (W) 04:57:04 437.345
M-CUBED/EXP-1 PRIME 24 Jan 04:52:22 04:54:28 13° 261° (W) 04:56:32 437.505
AIST 2 24 Jan 04:54:14 04:57:32 22° 249° (WSW) 05:00:48 435.215
HORYU 2 24 Jan 05:03:47 05:06:55 19° 94° (E) 05:10:03 437.375
O/OREOS (USA 219) 24 Jan 05:05:37 05:09:23 27° 103° (ESE) 05:13:09 437.305
DANDE 24 Jan 05:12:44 05:15:57 19° 296° (WNW) 05:19:50 436.750
PHONESAT 2.4 24 Jan 05:41:14 05:42:17 12° 211° (SSW) 05:43:21 2401.200-2431.200
GOMX 1 24 Jan 05:43:56 05:48:04 45° 99° (E) 05:52:03 467.674
CUTE-I 24 Jan 05:47:57 05:51:59 21° 94° (E) 05:56:01 437.470
BRITE-PL 24 Jan 06:01:37 06:06:01 40° 289° (WNW) 06:10:06 437.365/2234.400
DOVE 4 24 Jan 06:01:56 06:05:24 25° 96° (E) 06:08:52 437.250
SO-50 24 Jan 06:06:18 06:09:48 21° 111° (ESE) 06:13:17 436.795
Cosmos 2499 24 Jan 06:23:31 06:30:28 55° 79° (E) 06:37:24 435.465 / 435.565
RS-15 24 Jan 06:25:03 06:35:48 32° 35° (NE) 06:46:14 29.354- 29.394
NOAA 15 24 Jan 06:25:33 06:30:44 51° 100° (E) 06:35:51 137.62
GONETS M04 24 Jan 06:30:34 06:39:13 54° 78° (ENE) 06:47:47
Cubesat XI-IV 24 Jan 06:31:37 06:36:53 55° 101° (E) 06:42:07 437.490
AO-7 24 Jan 06:34:17 06:38:48 16° 310° (NW) 06:43:19 29.400- 29.500
STRAND 1 24 Jan 06:36:14 06:41:10 52° 72° (ENE) 06:46:06 437.568
HORYU 2 24 Jan 06:39:27 06:43:33 37° 289° (WNW) 06:47:40 437.375
O/OREOS (USA 219) 24 Jan 06:44:59 06:48:42 26° 299° (WNW) 06:52:27 437.305
LilacSat-2 24 Jan 06:48:03 06:51:55 68° 284° (WNW) 06:55:46 437.200
CINEMA 3 24 Jan 06:59:42 07:03:15 25° 96° (E) 07:06:54 145.822/145.860
CUTE 1.7 + AOD 2 24 Jan 07:07:55 07:10:44 17° 93° (E) 07:13:33 437.475
NOAA 18 24 Jan 07:10:06 07:15:33 66° 102° (ESE) 07:20:58 137.9125
GOMX 1 24 Jan 07:23:31 07:25:43 14° 296° (WNW) 07:27:52 467.674
CUTE-I 24 Jan 07:27:09 07:32:12 44° 289° (WNW) 07:37:15 437.470
CUBEBUG 2 24 Jan 07:27:29 07:29:11 12° 91° (E) 07:30:54 437.445
HO-68 24 Jan 07:31:41 07:38:21 40° 98° (E) 07:44:57 435.675
CANX-2 24 Jan 07:37:02 07:41:09 43° 98° (E) 07:45:14 2200.000
COMPASS 1 24 Jan 07:37:27 07:39:57 15° 92° (E) 07:42:26 437.405
SEEDS 24 Jan 07:39:28 07:43:01 25° 95° (E) 07:46:33 437.485
DOVE 4 24 Jan 07:39:46 07:43:00 22° 291° (WNW) 07:46:14 437.250
AAUSAT CUBESAT 2 24 Jan 07:44:35 07:46:45 14° 92° (E) 07:48:55 437.432
SO-50 24 Jan 07:45:31 07:49:59 42° 306° (NW) 07:54:26 436.795
UWE-3 24 Jan 07:46:44 07:48:36 12° 91° (E) 07:50:28 435.000/436.395/437.385
PCSat 24 Jan 08:04:51 08:08:41 19° 47° (NE) 08:12:30 145.827
NOAA 15 24 Jan 08:06:21 08:10:05 20° 296° (WNW) 08:13:48 137.62
PRISM 24 Jan 08:07:57 08:11:06 21° 68° (ENE) 08:14:15 437.425
Cubesat XI-IV 24 Jan 08:12:54 08:16:29 18° 297° (WNW) 08:20:03 437.490
STRAND 1 24 Jan 08:17:22 08:20:36 17° 268° (W) 08:23:52 437.568
Cosmos 2499 24 Jan 08:17:48 08:23:00 22° 277° (W) 08:28:12 435.465 / 435.565
Oscar 11 24 Jan 08:23:31 08:26:05 15° 92° (E) 08:28:37 145.826/435.025
GONETS M04 24 Jan 08:28:07 08:35:32 31° 276° (W) 08:42:58
CINEMA 3 24 Jan 08:36:50 08:40:18 25° 290° (WNW) 08:43:50 145.822/145.860
RS-15 24 Jan 08:37:38 08:50:03 88° 241° (WSW) 09:01:53 29.354- 29.394
CUTE 1.7 + AOD 2 24 Jan 08:42:43 08:46:41 37° 288° (WNW) 08:50:37 437.475
ANTELSAT 24 Jan 08:43:31 08:46:02 16° 66° (ENE) 08:48:34 437.575/2403.000
NOAA 18 24 Jan 08:52:22 08:55:37 16° 299° (WNW) 08:58:52 137.9125
CUBEBUG 2 24 Jan 09:01:45 09:06:04 57° 285° (WNW) 09:10:31 437.445
FUNcube-1 24 Jan 09:04:07 09:08:27 50° 99° (E) 09:12:50 145.935
COMPASS 1 24 Jan 09:11:43 09:15:39 39° 287° (WNW) 09:19:32 437.405
CANX-2 24 Jan 09:14:04 09:16:37 16° 294° (WNW) 09:19:09 2200.000
SEEDS 24 Jan 09:15:09 09:18:36 24° 291° (WNW) 09:22:01 437.485
AAUSAT CUBESAT 2 24 Jan 09:18:27 09:22:25 42° 287° (WNW) 09:26:20 437.432
HO-68 24 Jan 09:19:30 09:25:57 38° 295° (WNW) 09:32:23 435.675
UWE-3 24 Jan 09:20:58 09:25:19 56° 285° (WNW) 09:29:45 435.000/436.395/437.385
JAS-2 24 Jan 09:25:24 09:29:17 20° 61° (ENE) 09:33:25 435.910
ZACube-1 24 Jan 09:29:44 09:34:10 76° 285° (WNW) 09:38:41 437.345
PRISM 24 Jan 09:42:33 09:46:11 29° 263° (W) 09:49:51 437.425
PCSat 24 Jan 09:47:10 09:52:33 66° 246° (WSW) 09:57:54 145.827
UNISAT 6 24 Jan 09:49:43 09:53:58 90° 334° (NNW) 09:58:16 437.425
DELFI C3 24 Jan 09:56:48 10:00:44 58° 101° (E) 10:04:38 145.870
Oscar 11 24 Jan 09:58:16 10:02:24 43° 287° (WNW) 10:06:30 145.826/435.025
TIGRISAT 24 Jan 10:01:43 10:05:56 71° 259° (WSW) 10:10:11 435.000
ANTELSAT 24 Jan 10:18:23 10:22:23 41° 262° (W) 10:26:26 437.575/2403.000
QB50P1 24 Jan 10:24:22 10:27:18 19° 67° (ENE) 10:30:16 145.935-145.965
POLYITAN 1 24 Jan 10:29:40 10:32:52 22° 68° (ENE) 10:36:05 437.675
QB50P2 24 Jan 10:30:53 10:34:15 24° 69° (ENE) 10:37:39 145.880/145.840
HUMSAT D 24 Jan 10:37:39 10:41:58 86° 282° (WNW) 10:46:17 437.325/437.525
FUNcube-1 24 Jan 10:41:47 10:44:16 15° 294° (WNW) 10:46:45 145.935
POPSAT HIP 1 24 Jan 10:50:43 10:54:32 36° 72° (ENE) 10:58:23 437.405
RS-15 24 Jan 10:52:36 11:00:40 21° 262° (W) 11:08:34 29.354- 29.394
DUCHIFAT 1 24 Jan 10:55:54 10:59:41 35° 71° (ENE) 11:03:30 145.980
NANOSAT C BR1 24 Jan 11:03:34 11:07:35 48° 74° (ENE) 11:11:37 145.865
ESTCUBE 1 24 Jan 11:06:21 11:09:57 23° 95° (E) 11:13:32 437.505/2401.250
JAS-2 24 Jan 11:08:31 11:13:46 54° 261° (W) 11:19:36 435.910
BUGSAT 1 24 Jan 11:13:22 11:16:14 19° 68° (ENE) 11:19:07 437.445
BY70-1 24 Jan 11:14:36 11:17:39 51° 99° (E) 11:20:27 436.1900
CUBEBUG 1 24 Jan 11:33:14 11:36:50 25° 96° (E) 11:40:23 437.445
DELFI C3 24 Jan 11:34:25 11:35:00 10° 296° (WNW) 11:35:34 145.870
AO-85 24 Jan 11:50:12 11:53:00 16° 110° (ESE) 11:55:41 145.980
QB50P1 24 Jan 11:59:03 12:02:49 33° 262° (W) 12:06:38 145.935-145.965
50 SAT 24 Jan 12:00:56 12:03:36 20° 95° (E) 12:06:15 437.505
AISAT 24 Jan 12:01:15 12:05:13 33° 98° (E) 12:09:09 437.250
POLYITAN 1 24 Jan 12:04:53 12:08:30 28° 263° (W) 12:12:07 437.675
Gurwin Techsat 1B 24 Jan 12:05:27 12:07:44 13° 60° (ENE) 12:10:01 435.225
QB50P2 24 Jan 12:06:27 12:09:56 25° 264° (W) 12:13:26 145.880/145.840
POPSAT HIP 1 24 Jan 12:27:44 12:30:25 16° 267° (W) 12:33:07 437.405
SPROUT 24 Jan 12:29:10 12:33:18 49° 100° (E) 12:37:25 437.525
DUCHIFAT 1 24 Jan 12:32:46 12:35:28 17° 267° (W) 12:38:10 145.980
CUSAT 1 24 Jan 12:32:59 12:38:47 22° 64° (ENE) 12:44:08 437.405
VELOX 1 24 Jan 12:34:03 12:38:27 76° 102° (ESE) 12:42:49 145.980
UKube-1 24 Jan 12:41:38 12:45:23 29° 97° (E) 12:49:07 .
NANOSAT C BR1 24 Jan 12:41:50 12:43:33 12° 268° (W) 12:45:16 145.865
ESTCUBE 1 24 Jan 12:42:47 12:46:44 30° 290° (WNW) 12:50:40 437.505/2401.250
Cosmos 2491 24 Jan 12:43:00 12:51:36 54° 78° (ENE) 13:00:09 435.465 / 435.565
AIST 1 24 Jan 12:46:24 12:49:22 18° 87° (E) 12:52:21
YUBILEINY 24 Jan 12:47:25 12:54:02 24° 81° (E) 13:00:39 435.215
BUGSAT 1 24 Jan 12:47:51 12:51:24 29° 263° (W) 12:54:58 437.445
DX 1 24 Jan 12:51:13 12:55:28 53° 100° (E) 12:59:41 434.975-435.025
Oscar 19 24 Jan 12:51:21 12:56:29 65° 74° (ENE) 13:01:39 437.125/150
Cosmos 2504 24 Jan 13:08:54 13:13:41 16° 80° (E) 13:18:19 435.465 / 435.565
CUBEBUG 1 24 Jan 13:09:27 13:13:00 25° 291° (WNW) 13:16:32 437.445
AO-85 24 Jan 13:28:26 13:33:05 53° 303° (WNW) 13:37:23 145.980
50 SAT 24 Jan 13:34:00 13:36:42 21° 290° (WNW) 13:39:23 437.505
AISAT 24 Jan 13:38:12 13:41:26 21° 293° (WNW) 13:44:40 437.250
JUGNU 24 Jan 13:39:53 13:41:51 12° 177° (S) 13:43:49 437.505
TISAT 1 24 Jan 13:41:04 13:45:02 41° 99° (E) 13:49:00 437.305
Gurwin Techsat 1B 24 Jan 13:41:38 13:46:57 80° 257° (WSW) 13:52:17 435.225
AO-7 24 Jan 13:45:19 13:52:12 30° 58° (ENE) 13:59:06 29.400- 29.500
ITAMSAT 1 24 Jan 13:45:37 13:49:32 22° 65° (ENE) 13:53:27 435.822/435.867
DANDE 24 Jan 14:06:04 14:13:42 42° 73° (ENE) 14:21:22 436.750
SPROUT 24 Jan 14:06:38 14:08:46 14° 295° (WNW) 14:10:55 437.525
CUSAT 1 24 Jan 14:13:40 14:21:37 77° 264° (W) 14:28:29 437.405
UKube-1 24 Jan 14:17:53 14:21:15 23° 292° (WNW) 14:24:35 .
AIST 1 24 Jan 14:22:46 14:26:41 32° 282° (WNW) 14:30:37
ITUPSAT 1 24 Jan 14:24:43 14:28:37 24° 95° (E) 14:32:29 437.325
DX 1 24 Jan 14:29:05 14:31:11 13° 296° (WNW) 14:33:16 434.975-435.025
Oscar 19 24 Jan 14:33:37 14:36:13 14° 269° (W) 14:38:49 437.125/150
SO-50 24 Jan 14:39:00 14:41:33 15° 43° (NE) 14:44:05 436.795
Cosmos 2491 24 Jan 14:40:35 14:47:56 31° 276° (W) 14:55:18 435.465 / 435.565
YUBILEINY 24 Jan 14:41:14 14:49:59 67° 279° (W) 14:58:49 435.215
BEESAT 24 Jan 14:55:37 15:00:19 52° 100° (E) 15:04:58 436.000
Cosmos 2504 24 Jan 14:57:22 15:06:02 88° 273° (W) 15:14:10 435.465 / 435.565
SWISSCUBE 24 Jan 14:57:43 15:02:29 62° 102° (ESE) 15:07:14 437.505
BEESAT 3 24 Jan 15:14:08 15:17:58 67° 118° (ESE) 15:21:52 437.485
O/OREOS (USA 219) 24 Jan 15:16:19 15:20:37 41° 65° (ENE) 15:24:54 437.305
TISAT 1 24 Jan 15:17:51 15:20:19 15° 294° (WNW) 15:22:45 437.305
SRMSAT 24 Jan 15:18:36 15:20:00 11° 172° (S) 15:21:25 437.500
ITAMSAT 1 24 Jan 15:23:48 15:28:41 42° 261° (W) 15:33:36 435.822/435.867
JUGNU 24 Jan 15:29:15 15:29:56 10° 188° (S) 15:30:37 437.505
BRITE-PL 24 Jan 15:32:11 15:36:31 23° 67° (ENE) 15:40:47 437.365/2234.400
AO-7 24 Jan 15:36:09 15:44:24 62° 256° (WSW) 15:52:42 29.400- 29.500
MOZHAYETS 4 24 Jan 15:47:24 15:52:00 57° 100° (E) 15:56:33
DANDE 24 Jan 15:48:47 15:56:25 45° 270° (W) 16:04:02 436.750
KKS-1 24 Jan 15:54:20 15:57:28 19° 94° (E) 16:00:35 437.445
CUSAT 1 24 Jan 15:58:52 16:01:59 13° 283° (WNW) 16:04:59 437.405
HORYU 2 24 Jan 16:01:06 16:03:38 15° 65° (ENE) 16:06:10 437.375
ITUPSAT 1 24 Jan 16:02:08 16:06:26 33° 291° (WNW) 16:10:43 437.325
BEESAT 2 24 Jan 16:09:04 16:13:00 70° 303° (WNW) 16:16:58 435.950
SO-50 24 Jan 16:18:02 16:22:30 71° 242° (WSW) 16:26:56 436.795
M-CUBED/EXP-1 PRIME 24 Jan 16:30:29 16:33:33 36° 104° (ESE) 16:36:34 437.505
STARS 24 Jan 16:34:07 16:37:35 23° 96° (E) 16:41:03 437.465
BEESAT 24 Jan 16:34:42 16:37:38 16° 296° (WNW) 16:40:35 436.000
SWISSCUBE 24 Jan 16:37:15 16:39:43 14° 297° (WNW) 16:42:10 437.505
YUBILEINY 24 Jan 16:45:42 16:48:39 12° 301° (WNW) 16:51:36 435.215
CUBESAT XI-V 24 Jan 16:45:56 16:50:14 35° 97° (E) 16:54:28 437.345
GOMX 1 24 Jan 16:49:21 16:54:27 47° 73° (ENE) 16:59:18 467.674
BEESAT 3 24 Jan 16:54:21 16:56:01 12° 316° (NW) 16:57:42 437.485
Cosmos 2504 24 Jan 16:55:22 17:00:23 17° 294° (WNW) 17:05:16 435.465 / 435.565
O/OREOS (USA 219) 24 Jan 16:56:46 16:59:38 17° 260° (W) 17:02:30 437.305
NOAA 18 24 Jan 16:57:40 17:00:30 14° 60° (ENE) 17:03:19 137.9125
AUBIESAT-1 24 Jan 17:02:52 17:06:10 87° 106° (ESE) 17:09:28 437.475
DOVE 4 24 Jan 17:05:35 17:09:35 26° 70° (ENE) 17:13:25 437.250
SRMSAT 24 Jan 17:06:02 17:08:16 12° 183° (S) 17:10:30 437.500
CUTE-I 24 Jan 17:08:11 17:12:47 31° 68° (ENE) 17:17:23 437.470
BRITE-PL 24 Jan 17:09:07 17:14:37 49° 261° (W) 17:20:01 437.365/2234.400
MOZHAYETS 4 24 Jan 17:26:13 17:28:39 14° 296° (WNW) 17:31:03
LilacSat-2 24 Jan 17:28:17 17:31:52 43° 74° (ENE) 17:35:29 437.200
KKS-1 24 Jan 17:30:04 17:34:06 36° 289° (WNW) 17:38:08 437.445
HORYU 2 24 Jan 17:35:31 17:39:46 47° 260° (W) 17:44:02 437.375
NOAA 15 24 Jan 17:43:59 17:49:14 70° 74° (ENE) 17:54:32 137.62
Cubesat XI-IV 24 Jan 17:52:05 17:57:24 79° 75° (ENE) 18:02:44 437.490
HO-68 24 Jan 17:59:30 18:05:13 27° 61° (ENE) 18:10:56 435.675
CINEMA 3 24 Jan 18:00:31 18:03:39 20° 69° (ENE) 18:06:44 145.822/145.860
CUTE 1.7 + AOD 2 24 Jan 18:01:07 18:02:04 11° 64° (ENE) 18:03:01 437.475
M-CUBED/EXP-1 PRIME 24 Jan 18:06:59 18:07:42 11° 299° (WNW) 18:08:24 437.505
STARS 24 Jan 18:10:08 18:13:54 29° 290° (WNW) 18:17:40 437.465
CUBESAT XI-V 24 Jan 18:23:49 18:27:22 22° 293° (WNW) 18:30:53 437.345
CANX-2 24 Jan 18:28:30 18:32:01 26° 70° (ENE) 18:35:34 2200.000
GOMX 1 24 Jan 18:28:50 18:32:39 20° 266° (W) 18:36:20 467.674
SEEDS 24 Jan 18:30:33 18:33:04 16° 66° (ENE) 18:35:35 437.485
NOAA 18 24 Jan 18:34:58 18:40:28 76° 256° (WSW) 18:45:58 137.9125
DOVE 4 24 Jan 18:42:50 18:47:09 30° 263° (W) 18:51:16 437.250
CUTE-I 24 Jan 18:48:05 18:52:45 31° 264° (W) 18:57:25 437.470
STRAND 1 24 Jan 18:49:01 18:52:45 20° 94° (E) 18:56:27 437.568
AIST 2 24 Jan 18:49:03 18:53:08 74° 301° (WNW) 18:57:19 435.215
Cosmos 2499 24 Jan 18:57:22 19:05:19 50° 91° (E) 19:12:43 435.465 / 435.565
LilacSat-2 24 Jan 19:05:15 19:06:23 11° 269° (W) 19:07:29 437.200
Oscar 11 24 Jan 19:19:02 19:19:39 10° 63° (ENE) 19:20:17 145.826/435.025
NOAA 15 24 Jan 19:27:05 19:29:28 13° 269° (W) 19:31:52 137.62
GONETS M04 24 Jan 19:29:19 19:37:52 64° 92° (E) 19:46:29
CUTE 1.7 + AOD 2 24 Jan 19:33:06 19:37:18 65° 259° (W) 19:41:34 437.475
Cubesat XI-IV 24 Jan 19:36:24 19:38:01 11° 270° (W) 19:39:39 437.490
CINEMA 3 24 Jan 19:36:42 19:40:36 31° 263° (W) 19:44:24 145.822/145.860
HO-68 24 Jan 19:45:22 19:52:26 59° 258° (WSW) 19:59:33 435.675
CUBEBUG 2 24 Jan 19:58:14 20:02:22 84° 256° (WSW) 20:06:32 437.445
FUNcube-1 24 Jan 19:58:28 20:02:05 30° 71° (ENE) 20:05:43 145.935
COMPASS 1 24 Jan 20:00:05 20:04:16 75° 260° (W) 20:08:30 437.405
CANX-2 24 Jan 20:04:18 20:07:47 24° 265° (W) 20:11:18 2200.000
SEEDS 24 Jan 20:04:23 20:08:23 42° 262° (W) 20:12:26 437.485
AAUSAT CUBESAT 2 24 Jan 20:06:18 20:10:29 84° 259° (W) 20:14:42 437.432
UWE-3 24 Jan 20:16:17 20:20:25 85° 260° (W) 20:24:36 435.000/436.395/437.385
ISS 24 Jan 20:23:49 20:27:00 53° 137° (SE) 20:30:12 145.825
ZACube-1 24 Jan 20:23:54 20:27:59 67° 76° (ENE) 20:32:09 437.345
STRAND 1 24 Jan 20:27:13 20:32:05 45° 289° (WNW) 20:36:59 437.568
DELFI C3 24 Jan 20:40:59 20:44:22 27° 71° (ENE) 20:47:46 145.870
Oscar 11 24 Jan 20:50:52 20:55:10 70° 259° (W) 20:59:30 145.826/435.025
Cosmos 2499 24 Jan 20:51:29 20:58:36 31° 287° (WNW) 21:05:19 435.465 / 435.565
RS-15 24 Jan 20:53:11 20:58:50 15° 95° (E) 21:04:33 29.354- 29.394
PRISM 24 Jan 21:24:55 21:28:46 39° 99° (E) 21:32:34 437.425
HUMSAT D 24 Jan 21:27:04 21:31:03 51° 74° (ENE) 21:35:06 437.325/437.525
GONETS M04 24 Jan 21:28:20 21:35:17 26° 291° (WNW) 21:42:21
FUNcube-1 24 Jan 21:35:21 21:38:21 19° 266° (W) 21:41:22 145.935
UNISAT 6 24 Jan 21:43:09 21:46:37 21° 95° (E) 21:50:06 437.425
TIGRISAT 24 Jan 21:54:39 21:58:27 26° 96° (E) 22:02:17 435.000
ISS 24 Jan 22:01:11 22:03:41 20° 334° (NNW) 22:06:11 145.825
AO-85 24 Jan 22:01:13 22:05:07 81° 59° (ENE) 22:09:02 145.980
ESTCUBE 1 24 Jan 22:04:50 22:07:59 19° 66° (ENE) 22:11:09 437.505/2401.250
ANTELSAT 24 Jan 22:10:48 22:15:05 42° 98° (E) 22:19:27 437.575/2403.000
DELFI C3 24 Jan 22:16:06 22:19:07 21° 265° (W) 22:22:12 145.870
